{"data":{"norad_id":58701,"epoch":"2026-09-19T08:59:14.235648Z","epoch_age_seconds":111624,"freshness":"FRESH","line1":"1 58701U 24004B   26262.37447032  .00001528  00000+0  59592-4 0  9998","line2":"2 58701  97.4622  87.7907 0006248  29.7915 330.3679 15.27494593150156","mean_motion":15.27494593,"eccentricity":0.0006248,"inclination_deg":97.4622,"raan_deg":87.7907,"arg_perigee_deg":29.7915,"mean_anomaly_deg":330.3679,"bstar":5.9592e-5,"rev_number":15015,"period_min":94.272019462396,"perigee_km":479.01781837242,"apogee_km":487.59187610473,"semimajor_km":6861.4418472386,"source":"CELESTRAK","updated_at":"2026-09-20T09:00:33.256168Z"}}